Weather History for Hastings, NE

Change the Weather History Date:

Saturday, March 15, 2014

  Actual Average Record
Temperature  
Mean Temperature 47 °F 40 °F  
Max Temperature 63 °F 51 °F 86 °F (1935)
Min Temperature 30 °F 29 °F -7 °F (1949)
Degree Days  
Heating Degree Days 18 25  
Month to date heating degree days 452 422  
Since 1 July heating degree days 5332 5052  
Cooling Degree Days 0 0  
Month to date cooling degree days 0 0  
Year to date cooling degree days 0 0  
Moisture  
Dew Point 21 °F    
Average Humidity 46    
Maximum Humidity 72    
Minimum Humidity 20    
Precipitation  
Precipitation 0.00 in 0.05 in 0.80 in (1913)
Month to date precipitation T 0.64  
Year to date precipitation 0.71 1.54  
Snow  
Snow 0.00 in 0.20 in 8.00 in (1913)
Month to date snowfall T 2.8  
Since 1 July snowfall 18.3 25.2  
Snow Depth 0.00 in    
Sea Level Pressure  
Sea Level Pressure 29.95 in    
Wind  
Wind Speed 17 mph (NW)    
Max Wind Speed 31 mph    
Max Gust Speed 38 mph    
Visibility 10 miles    
Events      
T = Trace of Precipitation, MM = Missing Value Source: NWS Daily Summary

Daily Weather History Graph

Daily Weather History Graph

Search for Another Location

Airport:

Trip Planner

Search our weather history database for the weather conditions in past years. The results will help you decide how hot, cold, wet, or windy it might be!

Date:

Astronomy

Mar. 15, 2014 Rise Set
Actual Time 7:45 AM CDT 7:40 PM CDT
Civil Twilight 7:18 AM CDT 8:07 PM CDT
Nautical Twilight 6:46 AM CDT 8:39 PM CDT
Astronomical Twilight 6:14 AM CDT 9:11 PM CDT
Moon 7:01 PM CDT (3/15) 6:58 AM CDT (3/15)
Length of Visible Light 12h 49m
Length of Day
11h 55m
Waxing Gibbous, 99% of the Moon is Illuminated
Mar 15
Waxing Gibbous
Mar 16
Full
Mar 23
Last Quarter
Mar 30
New
Apr 7
First Quarter

Hourly Weather History & Observations

Time (CDT) Temp. Windchill Dew Point Humidity Pressure Visibility Wind Dir Wind Speed Gust Speed Precip Events Conditions
12:53 AM 45.0 °F 40.1 °F 16.0 °F 31% 29.88 in 10.0 mi South 9.2 mph - N/A   Clear
1:53 AM 43.0 °F 38.2 °F 17.1 °F 35% 29.87 in 10.0 mi South 8.1 mph - N/A   Clear
2:53 AM 41.0 °F 35.2 °F 17.1 °F 38% 29.86 in 10.0 mi SSW 9.2 mph - N/A   Clear
3:53 AM 41.0 °F 35.2 °F 17.1 °F 38% 29.83 in 10.0 mi SSW 9.2 mph - N/A   Clear
4:53 AM 39.9 °F 34.5 °F 17.1 °F 40% 29.82 in 10.0 mi SSW 8.1 mph - N/A   Clear
5:53 AM 39.0 °F 32.8 °F 17.1 °F 41% 29.81 in 10.0 mi SSW 9.2 mph - N/A   Clear
6:53 AM 39.0 °F 32.8 °F 17.1 °F 41% 29.80 in 10.0 mi SSW 9.2 mph - N/A   Clear
7:53 AM 39.9 °F 34.5 °F 18.0 °F 41% 29.80 in 10.0 mi SSW 8.1 mph - N/A   Clear
8:53 AM 42.1 °F 36.1 °F 19.0 °F 40% 29.79 in 10.0 mi SSW 10.4 mph - N/A   Clear
9:53 AM 50.0 °F - 21.9 °F 33% 29.78 in 10.0 mi SSW 13.8 mph - N/A   Clear
10:53 AM 55.0 °F - 21.9 °F 28% 29.78 in 10.0 mi SW 12.7 mph 19.6 mph N/A   Clear
11:53 AM 59.0 °F - 21.0 °F 23% 29.78 in 10.0 mi WSW 11.5 mph - N/A   Clear
12:53 PM 61.0 °F - 21.9 °F 22% 29.80 in 10.0 mi WNW 10.4 mph - N/A   Clear
1:53 PM 62.1 °F - 21.9 °F 21% 29.81 in 10.0 mi NW 16.1 mph 21.9 mph N/A   Clear
2:53 PM 61.0 °F - 23.0 °F 23% 29.83 in 10.0 mi NNW 26.5 mph - N/A   Clear
3:53 PM 57.9 °F - 24.1 °F 27% 29.87 in 10.0 mi North 26.5 mph 35.7 mph N/A   Clear
4:53 PM 55.0 °F - 25.0 °F 31% 29.92 in 10.0 mi North 27.6 mph 33.4 mph N/A   Clear
5:53 PM 50.0 °F - 21.9 °F 33% 29.98 in 10.0 mi North 25.3 mph - N/A   Clear
6:53 PM 45.0 °F 35.4 °F 21.0 °F 39% 30.04 in 10.0 mi North 28.8 mph 38.0 mph N/A   Clear
7:53 PM 39.9 °F 30.2 °F 21.0 °F 47% 30.10 in 10.0 mi NNE 20.7 mph 32.2 mph N/A   Clear
8:53 PM 36.0 °F 24.2 °F 23.0 °F 59% 30.18 in 10.0 mi NNE 24.2 mph 33.4 mph N/A   Clear
9:23 PM 36.0 °F 23.0 °F 25.0 °F 64% 30.15 in 10.0 mi NNE 29.9 mph 36.8 mph N/A   Mostly Cloudy
9:53 PM 35.1 °F 23.3 °F 25.0 °F 67% 30.20 in 10.0 mi NNE 23.0 mph 32.2 mph N/A   Overcast
10:53 PM 32.0 °F 19.2 °F 24.1 °F 73% 30.23 in 10.0 mi NNE 23.0 mph 29.9 mph N/A   Mostly Cloudy
11:15 PM 32.0 °F 18.9 °F 24.1 °F 73% 30.22 in 10.0 mi North 24.2 mph 32.2 mph N/A   Overcast
11:31 PM 30.9 °F 17.5 °F 24.1 °F 76% 30.22 in 10.0 mi NNE 24.2 mph 33.4 mph N/A   Overcast
11:53 PM 30.0 °F 16.3 °F 23.0 °F 75% 30.26 in 10.0 mi NNE 24.2 mph 34.5 mph N/A   Overcast